QPF
0.00 0.00 0.00 0.00 0.00 0.00 0.00 0.00 0.00 0.00 0.00 0.00 0.00 0.00 0.00 0.00 0.00 0.00 0.00 0.00 0.00 0.00 0.00 0.00 0.00 0.00 0.00 0.01 0.01 0.01 0.01 0.01 0.01 0.01 0.01 0.02 0.02 0.04 0.04 0.05 0.06 0.06 0.06
0.00 0.00 0.00 0.00 0.00 0.00 0.00 0.00 0.00 0.00 0.00 0.00 0.00 0.00 0.00 0.00 0.00 0.00 0.00 0.00 0.00 0.00 0.00 0.00 0.00 0.00 0.00 0.00 0.00 0.00 0.00 0.00 0.00 0.00 0.00 0.00 0.01 0.01 0.01 0.01 0.02 0.03 0.04
0.00 0.00 0.00 0.00 0.00 0.00 0.00 0.00 0.00 0.00 0.00 0.00 0.00 0.00 0.00 0.00 0.00 0.00 0.00 0.00 0.00 0.00 0.00 0.00 0.00 0.00 0.00 0.00 0.00 0.00 0.00 0.00 0.00 0.00 0.00 0.00 0.00 0.00 0.00 0.00 0.00 0.00 0.01
0.00 0.00 0.00 0.00 0.00 0.00 0.00 0.00 0.00 0.00 0.00 0.00 0.00 0.00 0.00 0.00 0.00 0.00 0.00 0.00 0.00 0.00 0.00 0.00 0.00 0.00 0.00 0.00 0.00 0.00 0.00 0.00 0.00 0.00 0.00 0.00 0.00 0.00 0.00 0.00 0.00 0.00 0.00
0.00 0.00 0.00 0.00 0.00 0.00 0.00 0.00 0.00 0.00 0.00 0.00 0.00 0.00 0.00 0.00 0.00 0.00 0.00 0.00 0.00 0.00 0.00 0.00 0.00 0.00 0.00 0.00 0.00 0.00 0.00 0.00 0.00 0.00 0.00 0.00 0.00 0.00 0.00 0.00 0.00 0.00 0.00
0.00 0.00 0.00 0.00 0.00 0.00 0.00 0.00 0.00 0.00 0.00 0.00 0.00 0.00 0.00 0.00 0.00 0.00 0.00 0.00 0.00 0.00 0.00 0.00 0.00 0.00 0.00 0.00 0.00 0.00 0.00 0.00 0.00 0.00 0.00 0.00 0.00 0.00 0.00 0.00 0.00 0.00 0.00
0.00 0.00 0.00 0.00 0.00 0.00 0.00 0.00 0.00 0.00 0.00 0.00 0.00 0.00 0.00 0.00 0.00 0.00 0.00 0.00 0.00 0.00 0.00 0.00 0.00 0.00 0.00 0.00 0.00 0.00 0.00 0.00 0.00 0.00 0.00 0.00 0.00 0.00 0.00 0.00 0.00 0.00 0.00
0.01 0.00 0.00 0.00 0.00 0.00 0.00 0.00 0.00 0.00 0.00 0.00 0.00 0.00 0.00 0.00 0.00 0.00 0.00 0.00 0.00 0.00 0.00 0.00 0.00 0.00 0.00 0.00 0.00 0.00 0.00 0.00 0.00 0.00 0.00 0.00 0.00 0.00 0.00 0.00 0.00 0.00 0.00
0.01 0.01 0.01 0.01 0.01 0.01 0.02 0.00 0.00 0.00 0.00 0.00 0.00 0.00 0.00 0.00 0.00 0.00 0.00 0.00 0.00 0.00 0.00 0.00 0.00 0.00 0.00 0.00 0.00 0.00 0.00 0.00 0.00 0.00 0.00 0.00 0.00 0.00 0.00 0.00 0.00 0.00 0.00
0.01 0.01 0.02 0.02 0.02 0.01 0.01 0.01 0.00 0.00 0.00 0.00 0.00 0.00 0.00 0.00 0.00 0.00 0.00 0.00 0.00 0.00 0.00 0.00 0.00 0.00 0.00 0.00 0.00 0.00 0.00 0.00 0.00 0.00 0.00 0.00 0.00 0.00 0.00 0.00 0.00 0.00 0.00
0.00 0.00 0.01 0.01 0.01 0.00 0.00 0.00 0.00 0.00 0.00 0.00 0.00 0.00 0.00 0.00 0.00 0.00 0.00 0.00 0.00 0.00 0.00 0.00 0.00 0.00 0.00 0.00 0.00 0.00 0.00 0.00 0.00 0.00 0.00 0.00 0.00 0.00 0.00 0.00 0.00 0.00 0.00
0.00 0.00 0.00 0.00 0.00 0.00 0.00 0.00 0.00 0.00 0.00 0.00 0.00 0.00 0.00 0.00 0.00 0.00 0.00 0.00 0.00 0.00 0.00 0.00 0.00 0.00 0.00 0.00 0.00 0.00 0.00 0.00 0.00 0.00 0.00 0.00 0.00 0.00 0.00 0.00 0.00 0.00 0.00
0.00 0.00 0.00 0.00 0.00 0.00 0.00 0.00 0.00 0.00 0.00 0.00 0.00 0.00 0.00 0.00 0.00 0.00 0.00 0.00 0.00 0.00 0.00 0.00 0.00 0.00 0.00 0.00 0.00 0.00 0.00 0.00 0.00 0.00 0.00 0.00 0.00 0.00 0.00 0.00 0.00 0.00 0.00
0.00 0.00 0.00 0.00 0.00 0.00 0.00 0.00 0.00 0.00 0.00 0.00 0.00 0.00 0.00 0.00 0.00 0.00 0.00 0.00 0.00 0.00 0.00 0.00 0.00 0.00 0.00 0.00 0.00 0.00 0.00 0.00 0.00 0.00 0.00 0.00 0.00 0.00 0.00 0.00 0.00 0.01 0.01
0.00 0.00 0.00 0.00 0.00 0.00 0.00 0.00 0.00 0.00 0.00 0.00 0.00 0.00 0.00 0.00 0.00 0.00 0.00 0.00 0.00 0.00 0.00 0.00 0.00 0.00 0.00 0.00 0.00 0.00 0.00 0.00 0.00 0.00 0.00 0.00 0.00 0.00 0.00 0.01 0.01 0.01 0.01
0.00 0.00 0.00 0.00 0.00 0.00 0.00 0.00 0.00 0.00 0.00 0.00 0.00 0.00 0.00 0.00 0.00 0.00 0.00 0.00 0.00 0.00 0.00 0.00 0.00 0.00 0.00 0.00 0.00 0.00 0.00 0.00 0.00 0.00 0.00 0.00 0.00 0.00 0.01 0.01 0.01 0.01 0.01
0.00 0.00 0.00 0.00 0.00 0.00 0.00 0.00 0.00 0.00 0.00 0.00 0.00 0.00 0.00 0.00 0.00 0.00 0.00 0.00 0.00 0.00 0.00 0.00 0.00 0.00 0.00 0.00 0.00 0.00 0.00 0.00 0.00 0.00 0.00 0.00 0.00 0.00 0.00 0.01 0.00 0.00 0.00
0.00 0.00 0.00 0.00 0.00 0.00 0.00 0.00 0.00 0.00 0.00 0.00 0.00 0.00 0.00 0.00 0.00 0.00 0.00 0.00 0.00 0.00 0.00 0.00 0.00 0.00 0.00 0.00 0.00 0.00 0.00 0.00 0.00 0.00 0.00 0.00 0.00 0.00 0.00 0.01 0.00 0.00 0.00
0.00 0.00 0.00 0.00 0.00 0.00 0.00 0.00 0.00 0.00 0.00 0.00 0.00 0.00 0.00 0.00 0.00 0.00 0.00 0.00 0.00 0.00 0.00 0.00 0.00 0.00 0.00 0.00 0.00 0.00 0.00 0.00 0.00 0.00 0.00 0.00 0.00 0.00 0.00 0.00 0.00 0.00 0.00
0.00 0.00 0.00 0.00 0.00 0.00 0.00 0.00 0.00 0.00 0.00 0.00 0.00 0.00 0.00 0.00 0.00 0.00 0.00 0.00 0.00 0.00 0.00 0.00 0.00 0.00 0.00 0.00 0.00 0.00 0.00 0.00 0.00 0.00 0.00 0.00 0.00 0.00 0.00 0.00 0.00 0.00 0.00
0.00 0.00 0.00 0.00 0.00 0.00 0.00 0.00 0.00 0.00 0.00 0.00 0.00 0.00 0.00 0.00 0.00 0.00 0.00 0.00 0.00 0.00 0.00 0.00 0.00 0.00 0.00 0.00 0.00 0.00 0.00 0.00 0.00 0.00 0.00 0.00 0.00 0.00 0.00 0.00 0.00 0.00 0.00
0.00 0.00 0.00 0.00 0.00 0.00 0.00 0.00 0.00 0.00 0.00 0.00 0.00 0.00 0.00 0.00 0.00 0.00 0.00 0.00 0.00 0.00 0.00 0.00 0.00 0.00 0.00 0.00 0.00 0.00 0.00 0.00 0.00 0.00 0.00 0.00 0.00 0.00 0.00 0.00 0.00 0.00 0.00
0.00 0.00 0.00 0.00 0.00 0.00 0.00 0.00 0.00 0.00 0.00 0.00 0.00 0.00 0.00 0.00 0.00 0.00 0.00 0.00 0.00 0.00 0.00 0.00 0.00 0.00 0.00 0.00 0.00 0.00 0.00 0.00 0.00 0.00 0.00 0.00 0.00 0.00 0.00 0.00 0.00 0.00 0.00
0.00 0.00 0.00 0.00 0.00 0.00 0.00 0.00 0.00 0.00 0.00 0.00 0.00 0.00 0.00 0.00 0.00 0.00 0.00 0.00 0.00 0.00 0.00 0.00 0.00 0.00 0.00 0.00 0.00 0.00 0.00 0.00 0.00 0.00 0.00 0.00 0.00 0.00 0.00 0.00 0.00 0.00 0.00
0.00 0.00 0.00 0.00 0.00 0.00 0.00 0.00 0.00 0.00 0.00 0.00 0.00 0.00 0.00 0.00 0.00 0.00 0.00 0.00 0.00 0.00 0.00 0.00 0.00 0.00 0.00 0.00 0.00 0.00 0.00 0.00 0.00 0.00 0.00 0.00 0.00 0.00 0.00 0.00 0.00 0.00 0.00
0.00 0.00 0.00 0.00 0.00 0.00 0.00 0.00 0.00 0.00 0.00 0.00 0.00 0.00 0.00 0.00 0.00 0.00 0.00 0.00 0.00 0.00 0.00 0.00 0.00 0.00 0.00 0.00 0.00 0.00 0.00 0.00 0.00 0.00 0.00 0.00 0.00 0.00 0.00 0.00 0.00 0.00 0.00
MSLP
1026.44 1026.56 1026.62 1026.61 1026.64 1026.73 1026.64 1026.60 1026.58 1026.54 1026.47 1026.45 1026.37 1026.28 1026.15 1026.10 1026.02 1025.93 1025.87 1026.49 1026.44 1026.18 1025.75 1025.42 1025.16 1025.04 1024.82 1024.56 1024.28 1024.03 1023.71 1023.49 1023.37 1023.19 1023.03 1022.73 1022.30 1021.97 1021.67 1021.35 1021.01 1020.64 1020.25
1026.36 1026.39 1026.50 1026.60 1026.71 1026.73 1026.74 1026.64 1026.55 1026.47 1026.43 1026.49 1026.32 1026.38 1026.26 1026.12 1026.09 1026.09 1026.06 1026.29 1026.77 1026.64 1026.30 1026.03 1025.80 1025.43 1025.15 1024.86 1024.76 1024.43 1024.05 1023.81 1023.64 1023.39 1023.24 1023.16 1022.80 1022.39 1021.97 1021.67 1021.31 1020.79 1020.31
1026.17 1026.23 1026.30 1026.39 1026.48 1026.68 1026.74 1026.69 1026.63 1026.57 1026.34 1026.38 1026.23 1026.26 1026.19 1026.18 1026.19 1026.22 1026.17 1026.21 1026.25 1026.73 1026.69 1026.55 1026.34 1025.96 1025.57 1025.42 1025.15 1024.83 1024.63 1024.48 1024.30 1024.07 1023.80 1023.43 1023.19 1022.89 1022.49 1022.09 1021.69 1021.11 1020.45
1026.14 1026.23 1026.22 1026.25 1026.39 1026.48 1026.43 1026.39 1026.36 1026.25 1026.29 1026.15 1026.08 1025.87 1025.86 1026.04 1026.26 1026.29 1026.39 1026.34 1026.49 1026.46 1026.65 1027.13 1027.02 1026.67 1026.31 1025.99 1025.75 1025.46 1025.37 1025.28 1025.18 1024.93 1024.51 1024.06 1023.63 1023.24 1022.90 1022.40 1021.92 1021.41 1020.76
1026.13 1026.02 1026.09 1026.11 1026.29 1026.31 1026.69 1026.70 1026.49 1026.83 1026.52 1026.26 1026.25 1025.91 1025.85 1026.10 1026.42 1026.45 1026.69 1026.86 1026.99 1027.03 1026.93 1027.21 1027.45 1027.51 1027.04 1026.63 1026.63 1026.54 1026.31 1026.06 1025.80 1025.43 1025.02 1024.56 1024.17 1023.67 1023.16 1022.63 1022.10 1021.47 1020.85
1025.95 1026.10 1025.77 1025.91 1026.31 1026.48 1026.58 1026.58 1026.66 1026.43 1026.76 1026.55 1026.39 1026.17 1026.18 1026.33 1026.51 1026.66 1026.94 1027.14 1027.33 1027.17 1027.27 1027.45 1027.46 1027.75 1027.94 1027.88 1027.54 1027.27 1026.87 1026.50 1026.30 1025.88 1025.41 1024.92 1024.43 1023.96 1023.39 1022.70 1021.99 1021.27 1020.63
1025.46 1025.72 1025.85 1025.91 1026.01 1026.03 1026.21 1026.23 1026.64 1026.62 1026.74 1026.68 1026.36 1026.10 1026.42 1026.68 1026.72 1026.80 1026.89 1027.05 1027.52 1027.70 1027.77 1027.80 1027.85 1027.85 1027.95 1028.30 1028.25 1028.06 1027.61 1027.09 1026.74 1026.41 1025.84 1025.19 1024.60 1024.04 1023.49 1022.84 1022.15 1021.47 1020.78
1024.82 1025.09 1025.28 1025.54 1025.54 1025.86 1026.20 1026.38 1026.57 1026.64 1026.68 1026.75 1026.41 1026.46 1026.07 1026.42 1026.60 1026.87 1027.22 1027.35 1027.54 1027.78 1027.95 1028.26 1028.51 1028.65 1028.70 1028.74 1028.73 1028.50 1028.04 1027.47 1026.97 1026.57 1026.10 1025.50 1024.86 1024.15 1023.58 1022.89 1022.16 1021.42 1020.69
1024.04 1024.26 1024.51 1024.83 1025.09 1025.28 1025.44 1025.87 1026.15 1026.40 1026.50 1026.93 1026.83 1026.66 1026.32 1026.25 1026.79 1027.12 1027.36 1027.65 1027.85 1028.03 1028.39 1028.64 1028.98 1029.24 1029.22 1029.01 1028.90 1028.88 1028.50 1027.84 1027.32 1026.87 1026.31 1025.68 1025.06 1024.37 1023.56 1022.88 1022.12 1021.31 1020.54
1023.37 1023.72 1023.93 1024.15 1024.33 1024.42 1024.88 1025.29 1025.72 1026.00 1026.24 1026.53 1026.95 1027.13 1027.18 1027.20 1026.90 1026.94 1027.55 1027.86 1027.86 1028.18 1028.72 1028.96 1029.09 1029.36 1029.39 1029.22 1029.33 1029.32 1028.92 1028.31 1027.70 1027.10 1026.52 1025.88 1025.23 1024.60 1024.00 1023.39 1022.71 1021.90 1021.02
1022.71 1023.02 1023.31 1023.61 1023.84 1024.29 1024.77 1025.32 1025.81 1026.00 1026.22 1026.39 1026.54 1027.14 1027.62 1027.71 1027.72 1027.41 1027.26 1027.49 1027.94 1028.39 1028.87 1029.40 1029.74 1029.66 1029.58 1029.42 1029.29 1029.31 1028.94 1028.42 1027.90 1027.41 1027.02 1026.65 1026.05 1025.33 1024.54 1023.73 1022.74 1021.71 1020.67
1022.30 1022.48 1022.85 1023.24 1023.85 1024.43 1024.84 1025.37 1025.84 1026.00 1026.34 1026.64 1027.00 1027.39 1027.44 1027.54 1027.68 1027.93 1028.19 1028.33 1028.41 1028.49 1028.94 1029.66 1029.87 1029.88 1029.88 1029.69 1029.58 1029.73 1029.38 1029.06 1028.47 1027.94 1027.46 1026.96 1026.30 1025.57 1024.81 1023.91 1022.81 1021.47 1020.32
1022.23 1022.59 1022.77 1023.43 1023.97 1024.51 1025.11 1025.52 1025.80 1026.08 1026.38 1026.76 1027.32 1027.68 1027.94 1028.28 1028.45 1028.57 1028.72 1029.09 1029.16 1029.02 1029.05 1029.74 1030.22 1030.36 1030.27 1030.23 1030.03 1030.10 1029.54 1029.44 1029.00 1028.30 1027.81 1027.18 1026.51 1025.88 1025.17 1024.00 1022.66 1021.59 1020.56
1021.32 1021.86 1022.37 1023.00 1023.73 1024.76 1025.59 1025.92 1025.98 1026.16 1026.53 1027.22 1027.72 1028.30 1028.62 1028.91 1029.07 1029.24 1029.24 1029.34 1029.43 1029.39 1029.37 1029.62 1030.12 1030.67 1030.68 1030.57 1030.48 1030.20 1029.54 1029.47 1029.18 1028.48 1028.00 1027.41 1026.76 1026.13 1025.30 1024.01 1023.07 1022.22 1021.26
1021.39 1022.15 1022.47 1022.95 1024.02 1024.56 1025.22 1025.59 1026.33 1026.79 1027.03 1027.53 1027.99 1028.35 1028.81 1029.28 1029.51 1029.69 1029.63 1029.73 1029.57 1029.30 1029.19 1029.75 1029.89 1030.38 1030.67 1030.51 1030.48 1030.27 1029.61 1029.57 1029.21 1028.73 1028.12 1027.51 1027.01 1026.35 1025.49 1024.51 1023.56 1022.71 1021.92
1020.79 1021.86 1022.48 1022.87 1023.95 1024.61 1025.00 1025.18 1026.32 1026.97 1027.41 1027.93 1028.20 1028.48 1028.92 1029.55 1029.85 1030.05 1029.85 1029.99 1029.76 1029.87 1029.47 1029.91 1030.30 1030.76 1030.79 1030.43 1030.13 1029.94 1029.67 1029.41 1029.05 1028.67 1028.06 1027.55 1027.12 1026.48 1025.69 1024.83 1024.17 1023.39 1022.60
1020.54 1021.27 1021.77 1022.92 1023.63 1024.12 1024.63 1025.36 1026.20 1026.82 1027.33 1027.90 1028.44 1028.73 1028.85 1029.18 1029.88 1030.24 1030.06 1030.18 1030.15 1030.30 1030.16 1030.13 1030.49 1030.56 1030.64 1030.31 1029.83 1029.69 1029.41 1029.11 1028.68 1028.38 1028.09 1027.77 1027.28 1026.69 1026.09 1025.19 1024.53 1023.83 1023.10
1020.31 1020.97 1021.75 1022.42 1023.33 1023.72 1024.44 1025.46 1026.22 1026.81 1027.35 1027.76 1028.10 1028.60 1029.04 1029.30 1029.97 1030.14 1030.39 1030.15 1030.05 1030.43 1030.36 1030.44 1030.55 1030.50 1030.55 1030.29 1029.92 1029.54 1029.25 1028.98 1028.67 1028.38 1028.10 1027.85 1027.54 1027.06 1026.55 1025.67 1024.84 1024.23 1023.64
1020.25 1021.17 1021.85 1022.28 1022.84 1023.36 1024.12 1025.21 1026.01 1026.65 1027.26 1027.70 1028.10 1028.32 1028.91 1029.41 1029.97 1030.06 1030.23 1030.15 1030.06 1030.24 1030.16 1030.40 1030.44 1030.48 1030.29 1030.08 1029.63 1029.36 1029.26 1028.84 1028.41 1028.47 1028.22 1027.82 1027.53 1027.15 1026.78 1026.09 1025.39 1024.71 1024.07
1020.08 1021.18 1021.82 1022.10 1022.52 1023.36 1024.27 1024.88 1025.89 1026.63 1027.23 1027.65 1028.02 1028.27 1028.85 1029.41 1029.61 1029.82 1029.99 1030.06 1030.20 1030.22 1030.28 1030.37 1030.22 1030.22 1029.98 1029.85 1029.40 1029.40 1029.03 1028.73 1028.61 1028.38 1028.12 1027.69 1027.34 1027.07 1026.87 1026.46 1025.94 1025.30 1024.34
1020.32 1021.23 1021.69 1021.79 1022.40 1023.13 1024.24 1024.91 1025.74 1026.39 1026.94 1027.48 1028.19 1028.63 1029.02 1029.47 1029.61 1029.48 1029.86 1029.86 1030.01 1030.13 1030.00 1030.15 1029.85 1029.88 1029.72 1029.59 1029.33 1029.43 1029.26 1029.09 1028.51 1028.61 1028.21 1027.41 1027.15 1026.81 1026.79 1026.61 1026.18 1025.58 1024.69
1020.33 1021.28 1021.77 1021.99 1022.69 1023.33 1024.09 1024.65 1025.12 1026.01 1026.77 1027.20 1027.88 1028.62 1029.01 1029.61 1029.62 1029.65 1029.81 1029.80 1029.83 1029.93 1029.88 1029.88 1029.52 1029.66 1029.56 1029.43 1029.31 1029.47 1029.56 1029.42 1028.57 1028.12 1028.51 1027.48 1027.09 1026.61 1026.56 1026.60 1026.04 1025.54 1024.98
1020.52 1020.96 1021.41 1022.07 1022.36 1023.16 1023.96 1024.50 1025.02 1025.70 1026.46 1027.09 1027.77 1028.26 1028.75 1029.16 1029.42 1029.37 1029.61 1029.64 1029.79 1029.59 1029.54 1029.54 1029.28 1029.52 1029.46 1029.33 1029.53 1029.60 1029.70 1029.75 1029.09 1028.27 1028.78 1027.34 1026.62 1026.35 1025.99 1026.45 1026.22 1025.79 1025.26
1020.05 1020.68 1021.01 1021.95 1022.33 1022.92 1023.36 1024.10 1024.97 1025.45 1026.13 1026.71 1027.37 1027.86 1028.22 1028.78 1028.93 1029.05 1029.34 1029.47 1029.43 1029.26 1029.22 1029.01 1029.05 1029.17 1029.18 1029.12 1029.40 1029.65 1029.99 1029.78 1029.12 1028.43 1028.84 1027.74 1026.63 1026.19 1025.73 1026.00 1026.11 1025.80 1025.57
1020.10 1020.46 1020.94 1021.62 1022.00 1022.64 1023.18 1023.88 1024.64 1025.54 1025.94 1026.41 1026.95 1027.41 1027.77 1028.32 1028.33 1028.55 1028.95 1029.11 1029.09 1029.03 1028.77 1028.56 1028.60 1028.62 1028.71 1028.86 1029.09 1029.37 1029.44 1029.36 1028.64 1028.14 1028.37 1028.42 1026.96 1026.49 1025.79 1025.54 1025.83 1025.88 1025.67
1019.76 1020.60 1021.29 1021.83 1022.00 1022.54 1023.32 1023.87 1024.51 1024.88 1025.58 1026.21 1026.81 1027.23 1027.67 1027.82 1027.81 1028.08 1028.44 1028.60 1028.71 1028.58 1028.42 1028.43 1028.57 1028.40 1028.32 1028.56 1028.78 1028.91 1028.99 1029.08 1028.90 1028.19 1028.38 1028.60 1027.40 1027.11 1025.97 1025.46 1025.56 1025.67 1025.57
Thickness
5665 5664 5663 5662 5661 5659 5659 5658 5656 5654 5653 5651 5649 5648 5647 5645 5643 5641 5639 5634 5632 5630 5629 5627 5626 5622 5619 5617 5615 5612 5609 5606 5602 5598 5594 5592 5591 5588 5586 5585 5584 5583 5582
5664 5664 5662 5661 5659 5657 5656 5655 5653 5651 5650 5647 5646 5644 5642 5641 5639 5636 5632 5628 5625 5622 5620 5618 5616 5614 5612 5608 5605 5602 5600 5596 5592 5588 5585 5580 5578 5578 5578 5576 5575 5575 5573
5664 5663 5661 5660 5658 5655 5653 5651 5649 5648 5647 5644 5643 5640 5638 5636 5633 5630 5628 5624 5622 5617 5613 5610 5607 5605 5603 5599 5595 5591 5587 5583 5579 5575 5572 5570 5568 5566 5565 5564 5563 5563 5564
5662 5661 5660 5659 5656 5654 5652 5650 5648 5647 5644 5642 5640 5638 5636 5633 5629 5625 5621 5617 5612 5610 5606 5600 5596 5593 5590 5587 5582 5579 5575 5570 5565 5562 5560 5560 5559 5557 5555 5554 5553 5552 5553
5661 5659 5657 5656 5654 5652 5649 5646 5644 5639 5638 5638 5634 5633 5630 5626 5621 5617 5611 5607 5602 5598 5595 5590 5585 5580 5577 5574 5568 5563 5559 5556 5552 5550 5549 5548 5546 5545 5544 5543 5541 5541 5541
5658 5655 5655 5653 5648 5647 5645 5643 5640 5637 5632 5630 5627 5627 5623 5617 5612 5608 5602 5596 5592 5590 5586 5579 5574 5568 5561 5556 5553 5549 5547 5543 5539 5538 5537 5537 5536 5534 5533 5533 5532 5532 5531
5657 5654 5651 5648 5645 5643 5641 5638 5635 5633 5628 5625 5623 5621 5615 5608 5604 5600 5595 5589 5582 5577 5573 5569 5563 5557 5551 5544 5539 5535 5532 5529 5527 5525 5526 5526 5525 5523 5522 5520 5520 5519 5517
5658 5655 5651 5646 5643 5640 5635 5633 5629 5626 5624 5619 5617 5611 5610 5605 5599 5592 5584 5579 5574 5569 5564 5557 5550 5544 5538 5532 5527 5523 5520 5519 5517 5515 5513 5512 5511 5511 5509 5508 5507 5505 5502
5660 5656 5652 5646 5643 5639 5637 5631 5627 5622 5619 5611 5609 5607 5603 5599 5589 5583 5576 5570 5563 5557 5550 5545 5538 5530 5524 5520 5515 5511 5507 5507 5506 5504 5502 5501 5499 5497 5497 5494 5490 5488 5484
5658 5653 5650 5647 5642 5639 5635 5630 5624 5620 5616 5609 5602 5597 5592 5587 5584 5579 5568 5559 5555 5547 5538 5531 5526 5519 5513 5508 5502 5497 5495 5494 5494 5493 5492 5489 5486 5482 5478 5474 5470 5466 5460
5656 5652 5648 5644 5640 5635 5629 5623 5617 5612 5608 5604 5600 5590 5581 5576 5572 5570 5565 5557 5547 5537 5528 5518 5511 5506 5501 5496 5492 5488 5485 5484 5483 5480 5474 5469 5464 5460 5456 5454 5451 5447 5442
5654 5649 5645 5640 5634 5627 5622 5615 5608 5603 5598 5593 5587 5581 5578 5574 5568 5562 5553 5544 5534 5526 5516 5506 5499 5493 5487 5482 5478 5474 5471 5468 5466 5462 5458 5453 5448 5444 5439 5435 5430 5427 5422
5647 5643 5640 5632 5626 5620 5613 5607 5601 5595 5589 5583 5575 5569 5565 5558 5553 5547 5541 5532 5523 5516 5509 5496 5487 5479 5474 5468 5465 5461 5458 5452 5447 5445 5441 5436 5430 5424 5417 5413 5409 5404 5396
5648 5642 5636 5628 5622 5610 5599 5594 5590 5586 5579 5569 5562 5554 5549 5543 5538 5532 5527 5521 5514 5503 5497 5488 5476 5466 5460 5455 5451 5448 5444 5439 5433 5431 5424 5418 5412 5404 5397 5392 5384 5375 5365
5636 5630 5626 5621 5610 5603 5594 5586 5578 5571 5565 5558 5551 5545 5538 5531 5525 5519 5513 5506 5502 5500 5494 5477 5467 5457 5449 5444 5439 5434 5431 5425 5419 5414 5409 5401 5392 5383 5374 5367 5358 5347 5335
5632 5622 5616 5609 5600 5592 5585 5580 5568 5559 5552 5545 5540 5534 5527 5519 5512 5505 5501 5493 5487 5481 5480 5463 5454 5444 5438 5434 5429 5424 5419 5412 5408 5401 5394 5385 5374 5363 5353 5344 5332 5319 5307
5624 5618 5612 5599 5591 5585 5577 5567 5557 5549 5542 5534 5527 5521 5517 5511 5501 5493 5489 5481 5474 5464 5458 5451 5441 5434 5428 5424 5420 5413 5409 5402 5396 5388 5378 5367 5355 5344 5331 5318 5307 5295 5282
5612 5607 5599 5591 5582 5576 5566 5555 5545 5538 5531 5525 5519 5511 5504 5498 5488 5481 5475 5469 5463 5451 5444 5436 5429 5423 5418 5412 5407 5402 5396 5388 5381 5373 5361 5350 5336 5323 5309 5299 5287 5272 5258
5602 5593 5585 5581 5574 5567 5557 5545 5536 5528 5521 5514 5507 5502 5493 5484 5475 5469 5462 5456 5450 5442 5436 5426 5419 5413 5408 5403 5398 5387 5380 5373 5364 5357 5343 5331 5318 5306 5292 5279 5267 5253 5243
5591 5580 5573 5569 5563 5554 5544 5536 5526 5518 5509 5503 5496 5491 5481 5471 5464 5456 5449 5443 5436 5429 5422 5416 5410 5404 5399 5391 5387 5379 5367 5358 5347 5336 5328 5315 5304 5291 5276 5263 5250 5237 5232
5577 5568 5562 5560 5552 5545 5532 5525 5515 5508 5500 5493 5484 5476 5467 5457 5451 5445 5437 5430 5423 5417 5412 5406 5403 5396 5389 5382 5376 5365 5356 5345 5336 5320 5309 5303 5292 5279 5263 5247 5234 5227 5223
5564 5555 5550 5545 5538 5531 5522 5515 5509 5500 5490 5482 5474 5462 5454 5444 5437 5431 5424 5418 5413 5407 5401 5396 5394 5385 5378 5370 5362 5353 5342 5332 5328 5318 5296 5288 5278 5266 5251 5237 5228 5219 5215
5549 5544 5540 5533 5528 5519 5511 5504 5498 5489 5479 5470 5461 5452 5443 5434 5427 5420 5411 5406 5401 5397 5392 5388 5382 5374 5366 5357 5346 5336 5324 5314 5308 5300 5287 5278 5268 5255 5244 5229 5219 5212 5207
5541 5534 5531 5522 5517 5510 5504 5495 5485 5477 5469 5460 5449 5440 5433 5424 5416 5409 5401 5394 5390 5387 5382 5379 5372 5363 5354 5346 5333 5322 5310 5298 5290 5284 5270 5267 5260 5247 5235 5222 5212 5206 5201
5527 5524 5519 5512 5507 5499 5491 5483 5475 5463 5455 5447 5438 5430 5422 5413 5407 5398 5390 5383 5378 5374 5370 5365 5359 5352 5342 5333 5323 5310 5300 5288 5282 5273 5257 5246 5246 5238 5228 5216 5205 5198 5194
5518 5510 5503 5496 5492 5485 5475 5468 5459 5452 5443 5434 5425 5416 5409 5403 5396 5388 5381 5374 5367 5363 5358 5352 5343 5338 5332 5322 5311 5300 5288 5275 5266 5262 5247 5236 5231 5221 5222 5213 5201 5193 5189